Погода Усть-Кулом

Погода Усть-Кулом : погода сейчас, прогноз погоды и архив. Всё, что Вы хотите узнать о погоде Усть-Кулом!

Поиск расширенной информации на нашем сайте:

Другие новости

Новости СМИ2

Главная страница сайта

Новости сайта

03.07.2017

Напоминаем, что на нашем специализированном сайте Метеоцентр.Азия вы можете получить высокодетализированные автоматические прогнозы погоды по пунктам России, СНГ и мира в авиационном формате (включающие направление и скорость ветра, видимость, явления погоды, количество и форму облачности, нижнюю и верхнюю границу облачности).


Погода Усть-Кулом - сегодня

Время (UTC), дата Ветер
(°,м/с) 
Видим.   Явления Облачность Т
(°С)
Тd
(°С)
f(%) Тe
(°С)
Pmin
(гПа)
dP
(гПа)
Po
(мм)
O2
(г/м3)
Тmin Tmax R s Состояние
почвы
18 12.12.17 120 (ЮВ) 20000 м  {снег}  10/10 480 м 
[St]
-15.3 -17.6 83 -19  1031  759  325           
21 12.12.17 120 (ЮВ) 20000 м    10/10 500 м 
[St]
-13.5 -15.6 84 -17  1030.6  -0.3  758  323           
00 13.12.17 130 (ЮВ) 20000 м    10/10 540 м 
[St]
-12.3 -14.3 85 -14  1029.9  -0.6  758  321           
03 13.12.17 130 (ЮВ) 20000 м    10/10 450 м 
[St]
-11 -12.9 86 -14  1028.7  -1.1  757  319  -16.8    0.0  30  равномерный
сухой снег
100% 
06 13.12.17 150 (ЮВ) 20000 м    10/10 420 м 
[St]
-9.4 -10.9 89 -12  1026.2  -2.3  755  316           
09 13.12.17 130 (ЮВ) 10 км  слаб. снег  10/10 420 м 
[Ns]
-8.4 -9.3 93 -11  1024.6  -1.5  754  315           
12 13.12.17 140 (ЮВ) 20000 м  {снег}  10/10 360 м 
[St]
-7 -7.8 94 -10  1021.6  -2.9  752  312           
15 13.12.17 150 (ЮВ) 20000 м    10/10 240 м 
[St]
-5.5 -6.2 95 -8  1018.2  -3.2  750  309    -5.5  0.0     
18 13.12.17 170 (Ю) 7-11{12}  2000 м  слаб. ливневой снег  10/10 240 м кучево-дожд. 
[Cb cap]
-3.3 -4.2 93 -8  1015  -2.9  748  305           
21 13.12.17 180 (Ю) 5{12}  2000 м  слаб. ливневой снег  10/10 210 м кучево-дожд. 
[Cb cap]
-3.2 -4 94 -7  1013.6  -1.4  747  305           
00 14.12.17 190 (Ю) 5{11}  2000 м  слаб. ливневой снег  10/10 240 м кучево-дожд. 
[Cb cap]
-3.1 -4.2 92 -7  1013.1  -0.5  746  305           
03 14.12.17 190 (Ю) 4{11}  4000 м  слаб. ливневой снег  10/10 270 м кучево-дожд. 
[Cb cap]
-2.7 -3.9 91 -6  1014.1  747  304  -5.5    33  неравномерный
сухой снег
100% 
06 14.12.17 200 (Ю) 20000 м  {ливн. осадки}  10/10 570 м кучево-дожд. 
[Cb cap]
-2.2 -3.5 91 -4  1016.5  2.3  749  305           
09 14.12.17 210 (ЮЗ) 10 км  слаб. снег  10/10 400 м 
[Ns]
-1.7 -2.5 94 -4  1018.6  2.1  750  304           
12 14.12.17 170 (Ю) 20000 м  {снег}  10/10 500 м 
[St]
-1.7 -2.8 92 -4  1020  1.4  751  305           
15 14.12.17 160 (Ю) 20000 м    10/10 420 м 
[St]
-2 -3 93 -4  1020  751  305    -1.4  0.4     
18 14.12.17 140 (ЮВ) 10 км  слаб. снег  10/10 360 м 
[Ns]
-2.9 -3.7 94 -5  1019.6  -0.4  751  306           
21 14.12.17 150 (ЮВ) 4000 м  снег  10/10 330 м 
[Frnb|Ns]
-3.4 -4.1 95 -6  1018.7  -0.9  750  307           
00 15.12.17 150 (ЮВ) 10 км  слаб. снег  10/10 400 м 
[Ns]
-3.5 -4.2 95 -6  1018  -0.8  750  306           
03 15.12.17 150 (ЮВ) 4000 м  снег  10/10 330 м 
[Frnb|Ns]
-2.6 -3.1 96 -4  1017.4  -0.5  749  305  -3.6    34  неравномерный
сухой снег
100% 
06 15.12.17 180 (Ю) 2000 м  снег  10/10 270 м 
[Frnb|Ns]
-1.2 -1.8 96 -4  1017.4  0.1  749  303           
09 15.12.17 190 (Ю) 7-11{11}  10 км  слаб. снег  10/10 420 м 
[Ns]
-2.1 -4.5 84 -6  1018.5  750  305           
12 15.12.17 180 (Ю) 5{11}  10 км  слаб. снег  10/10 420 м 
[Ns]
-3.7 -5 91 -7  1019.9  1.3  751  307           
15 15.12.17 180 (Ю) 10 км  слаб. снег  10/10 540 м 
[Ns]
-3.9 -5.6 88 -8  1020.4  0.5  752  308    -1.1     
18 15.12.17 190 (Ю) 20000 м  {снег}  10/10 540 м 
[St]
-3.7 -5.2 89 -7  1021.5  752  308           
Время (UTC), дата Ветер
(°,м/с) 
Видим.   Явления Облачность Т
(°С)
Тd
(°С)
f(%) Тe
(°С)
Pmin
(гПа)
dP
(гПа)
Po
(мм)
O2
(г/м3)
Тmin Tmax R s Состояние
почвы

Для получения пояснительной информации подведите курсор к названию столбца.

ПОГОДА Усть-Кулом - архив

Всё, что Вы хотите узнать о погоде Усть-Кулом - удобно и подробно!

Выберите нужную дату (начиная с 1 января 2015* года) и нажмите кнопку "Найти".
Будут отображены архивные сводки погоды по пункту Усть-Кулом, начиная с указанной даты.


Отображать данные в формате CSV (для использования в таблицах Excel)


Внимание! Наш архив погоды предназначен исключительно для личного некоммерческого использования в познавательных целях. Если Вам необходимы официальные справки о состоянии погоды (для производственных, юридических, коммерческих и т.п. целей), обращайтесь в органы Росгидромета.

*Примечание: данная дата относится к архиву по метеостанциям СССР (Россия, СНГ, Балтия).
Архив по метеостанциям Зарубежной Европы и Азии (кроме Китая) хранится 10 дней, по другим регионам земного шара (Китай, Африка, Америка, Австралия, Океания) - 1 день.

Усть-Кулом - район местоположения метеостанции


Название, широта, долгота, высота метеостанции:
Усть-Кулом 61.7°ш. 53.7°д. 144 м над ур. моря [Российская Федерация]

Дополнительная информация

В oтличие oт бoльшинства пoгoдных сайтoв мы публикуем пoдрoбную метеoинфoрмацию в детальнoм прoфессиoнальнoм фoрмате.

Характеристики температуры и влажнoсти вoздуха измеряются на высoте 2 м в тени вдали oт зданий и деревьев.
Скoрoсть ветра измеряется на высoте 10 м (на урoвне рoста челoвека скoрoсть ветра ниже в 1.5-2 раза). Если метеoстанция нахoдится в гoрoде или в лесу, тo скoрoсть ветра занижена на 2-4 м/с пo сравнению с oткрытым местoм. Скoрoсть ветра над акватoриями крупных рек и oзёр, а также на вершинах хoлмoв на 2-5 м/с выше, чем в oбычных услoвиях.
Атмoсфернoе давление в разных тoчках местнoсти мoжет значительнo oтличаться oт давления на метеoстанции, в зависимoсти oт услoвий рельефа (при пoдъёме на 10 м давление пoнижается примернo на 1 мм рт.ст.).